sat.trackr.live / text

‹ back to catalog

FLOCK 4BE-32

NORAD 60497 · 2024-149AF

PAYLOAD ACTIVE UNKNOWN

§ Identity

Operator
Country
US
Launch date
2024-08-16
Launch site
AFWTR
Launch vehicle
Mass (kg)
RCS (m²)

Purposes: earth_obs

External: N2YO · Heavens-Above · Gunter

§ Orbital elements

Epoch: 2026-05-25T05:05:15.021024Z

Period
93.43 min
Inclination
97.3722°
Eccentricity
0.0003160
Mean motion
15.41261056 rev/d
Perigee alt
440.2 km
Apogee alt
444.5 km
Semi-major
6,820.5 km
B*
4.2373e-4
RAAN
228.9058°
Arg perigee
26.6409°
Mean anomaly
333.4999°
Rev number
9,879

§ Raw data

FLOCK 4BE-321 60497U 24149AF  26145.21197941  .00017558  00000+0  42373-3 0  99952 60497  97.3722 228.9058 0003160  26.6409 333.4999 15.41261056 98793

JSON: /api/v1/satellites/60497 · /tle

For live sub-satellite position, see the globe view (requires WebGL).

§ Visibility from observer

Set your observer location to see the next 7 days of passes ≥ 10°. The values pass through the URL so the page stays shareable.

No JS? Fill the form by hand. The geolocation button needs JavaScript.